Cherry Point, NC

4:04 AM EDT on March 25, 2017 (GMT -0400)
Cherry Point Marine Corps Air Station

Weather History for KNKT - May, 2013

Change the Weather History Date:

Tuesday, May 28, 2013

  Actual Average Record
Temperature  
Mean Temperature 68 °F -  
Max Temperature 82 °F 80 °F 93 °F (2004)
Min Temperature 55 °F 60 °F 52 °F (1999)
Cooling Degree Days 3    
Growing Degree Days 18 (Base 50)    
Moisture  
Dew Point 60 °F    
Average Humidity 72    
Maximum Humidity 93    
Minimum Humidity 49    
Precipitation  
Precipitation 0.00 in - - ()
Sea Level Pressure  
Sea Level Pressure 30.24 in    
Wind  
Wind Speed 4 mph ()    
Max Wind Speed 13 mph    
Max Gust Speed 18 mph    
Visibility 9.9 miles    
Events      
Averages and records for this station are not official NWS values.
T = Trace of Precipitation, MM = Missing Value Source: Averaged Metar Reports

Daily Weather History Graph

Daily Weather History Graph

Search for Another Location

Airport or City:

Trip Planner

Search our weather history database for the weather conditions in past years. The results will help you decide how hot, cold, wet, or windy it might be!

Date:

Astronomy

May. 28, 2013 Rise Set
Actual Time 5:56 AM EDT 8:13 PM EDT
Civil Twilight 5:27 AM EDT 8:42 PM EDT
Nautical Twilight 4:52 AM EDT 9:18 PM EDT
Astronomical Twilight 4:13 AM EDT 9:56 PM EDT
Moon 11:40 PM EDT (5/28) 9:38 AM EDT (5/28)
Length of Visible Light 15h 15m
Length of Day
14h 17m
Waning Gibbous, 83% of the Moon is Illuminated
May 28
Waning Gibbous
May 31
Last Quarter
Jun 8
New
Jun 16
First Quarter
Jun 23
Full

Hourly Weather History & Observations

Time (EDT) Temp. Heat Index Dew Point Humidity Pressure Visibility Wind Dir Wind Speed Gust Speed Precip Events Conditions
12:54 AM 59.0 °F - 54.0 °F 83% 30.25 in 10.0 mi Calm Calm - N/A   Partly Cloudy
1:54 AM 57.0 °F - 53.1 °F 87% 30.25 in 10.0 mi Calm Calm - N/A   Partly Cloudy
2:54 AM 57.9 °F - 54.0 °F 87% 30.23 in 10.0 mi Calm Calm - N/A   Clear
3:54 AM 59.0 °F - 54.0 °F 83% 30.23 in 10.0 mi Calm Calm - N/A   Clear
4:54 AM 57.9 °F - 54.0 °F 87% 30.23 in 10.0 mi Calm Calm - N/A   Clear
5:54 AM 55.9 °F - 53.1 °F 90% 30.24 in 10.0 mi ESE 5.8 mph - N/A   Clear
6:54 AM 60.1 °F - 57.9 °F 93% 30.25 in 8.0 mi SE 3.5 mph - N/A   Scattered Clouds
7:54 AM 69.1 °F - 64.0 °F 84% 30.27 in 10.0 mi SSE 3.5 mph - N/A   Scattered Clouds
8:54 AM 73.9 °F - 62.1 °F 66% 30.27 in 10.0 mi SSE 9.2 mph - N/A   Scattered Clouds
9:54 AM 75.9 °F - 62.1 °F 62% 30.28 in 10.0 mi Variable 4.6 mph - N/A   Scattered Clouds
10:54 AM 75.0 °F - 60.1 °F 60% 30.28 in 10.0 mi South 5.8 mph - N/A   Partly Cloudy
11:54 AM 79.0 °F - 61.0 °F 54% 30.27 in 10.0 mi SSW 8.1 mph - N/A   Scattered Clouds
12:54 PM 81.0 °F 81.6 °F 60.1 °F 49% 30.28 in 10.0 mi Variable 6.9 mph - N/A   Mostly Cloudy
1:54 PM 81.0 °F 81.6 °F 60.1 °F 49% 30.27 in 10.0 mi SSE 12.7 mph 18.4 mph N/A   Scattered Clouds
2:54 PM 80.1 °F 80.9 °F 60.1 °F 50% 30.24 in 10.0 mi South 12.7 mph - N/A   Scattered Clouds
3:54 PM 80.1 °F 80.9 °F 60.1 °F 50% 30.22 in 10.0 mi SSW 9.2 mph 16.1 mph N/A   Clear
4:54 PM 79.0 °F - 62.1 °F 56% 30.21 in 10.0 mi South 10.4 mph - N/A   Partly Cloudy
5:54 PM 78.1 °F - 63.0 °F 60% 30.22 in 10.0 mi South 11.5 mph 16.1 mph N/A   Partly Cloudy
6:54 PM 75.0 °F - 62.1 °F 64% 30.22 in 10.0 mi SSW 8.1 mph - N/A   Partly Cloudy
7:54 PM 73.0 °F - 62.1 °F 68% 30.22 in 10.0 mi South 6.9 mph - N/A   Clear
8:54 PM 70.0 °F - 63.0 °F 78% 30.23 in 10.0 mi South 3.5 mph - N/A   Clear
9:54 PM 68.0 °F - 63.0 °F 84% 30.24 in 10.0 mi South 3.5 mph - N/A   Clear
10:54 PM 66.9 °F - 64.0 °F 90% 30.23 in 10.0 mi South 4.6 mph - N/A   Clear
11:54 PM 66.9 °F - 64.0 °F 90% 30.23 in 10.0 mi South 4.6 mph - N/A   Clear